Home > Weather > Perth > Past weeks

Flag for Australia Past Weather in Perth, Western Australia, Australia — Yesterday and Last 2 Weeks

Now
64 °F

Passing clouds.


Feels Like: 64 °F
Forecast: 46 / 62 °F
Wind: 9 mph from Northwest

Location: Belmont Perth Airport

Current Time: Jun 26, 2016 at 4:25:21 PM

Latest Report: Jun 26, 2016 at 3:30 PM


Visibility: N/A

Pressure: 30.18 "Hg

Humidity: 46%

Dew Point: 43 °F

Location of PerthLocation

Past Weather in Perth — Graph

°F

Perth Temperature Yesterday

Maximum temperature yesterday: 63 °F (at 2:00 PM)
Minimum temperature yesterday: 41 °F (at 10:30 PM)
Average temperature yesterday: 52 °F

High & Low Weather Summary for the Past Weeks

 TemperatureHumidityPressure
High70 °F (Jun 12, 1:00 PM)100% (Jun 12, 6:00 PM)30.30 "Hg (Jun 12, 6:00 PM)
Low41 °F (Jun 25, 10:30 PM)38% (Jun 12, 1:00 PM)29.77 "Hg (Jun 19, 2:00 PM)
Average56 °F77%30.07 "Hg
* Reported Jun 11 3:00 PM — Jun 26 3:00 PM, Perth, Weather by CustomWeather, © 2016

Note: Actual official high and low records may vary slightly from our data, if they occured in-between our weather recording intervals... More about our weather records

Advertising

Perth Weather History for the Previous 24 Hours

Scroll right to see more
 ConditionsComfort  
Time TempWeatherWind HumidityBarometerVisibility
3:00 PM
Sun, Jun 26
64 °FPassing clouds.8 mph43%30.18 "HgN/A
2:30 PM64 °FPassing clouds.6 mph43%30.18 "HgN/A
2:00 PM64 °FPassing clouds.6 mph43%30.21 "HgN/A
1:00 PM63 °FPassing clouds.8 mph42%30.21 "HgN/A
12:30 PM63 °FPassing clouds.9 mph39%30.24 "HgN/A
12:00 PM61 °FPassing clouds.10 mph45%30.24 "HgN/A
11:30 AM59 °FPassing clouds.9 mph51%30.27 "HgN/A
11:00 AM59 °FPassing clouds.10 mph45%30.27 "HgN/A
10:30 AM57 °FPassing clouds.7 mph55%30.30 "HgN/A
10:00 AM54 °FPassing clouds.7 mph63%30.30 "HgN/A
9:30 AM52 °FPassing clouds.6 mph62%30.30 "HgN/A
9:00 AM48 °FPassing clouds.6 mph71%30.30 "HgN/A
8:30 AM45 °FPassing clouds.7 mph81%30.27 "HgN/A
8:00 AM43 °FPassing clouds.7 mph81%30.27 "HgN/A
7:30 AM41 °FSunny.8 mph87%30.27 "Hg10 mi
7:00 AM43 °FSunny.8 mph81%30.27 "Hg10 mi
6:30 AM41 °FSunny.7 mph87%30.24 "Hg10 mi
6:00 AM41 °FClear.6 mph87%30.24 "Hg10 mi
5:30 AM41 °FClear.8 mph87%30.24 "Hg10 mi
5:00 AM41 °FClear.8 mph93%30.24 "Hg10 mi
4:30 AM41 °FClear.7 mph93%30.24 "Hg10 mi
4:00 AM43 °FClear.9 mph87%30.24 "Hg10 mi
3:30 AM41 °FClear.8 mph93%30.24 "Hg10 mi
3:00 AM43 °FClear.7 mph93%30.24 "Hg10 mi
2:00 AM43 °FClear.6 mph93%30.24 "Hg10 mi
1:30 AM45 °FClear.6 mph87%30.24 "Hg10 mi
1:00 AM43 °FClear.7 mph93%30.24 "Hg10 mi
12:30 AM43 °FClear.7 mph93%30.24 "Hg10 mi
12:00 AM41 °FClear.6 mph100%30.24 "Hg10 mi
11:30 PM
Sat, Jun 25
41 °FClear.6 mph93%30.24 "Hg10 mi
11:00 PM43 °FClear.6 mph93%30.24 "Hg10 mi
10:30 PM41 °FClear.6 mph100%30.24 "Hg10 mi
10:00 PM43 °FClear.3 mph93%30.24 "Hg10 mi
9:30 PM43 °FClear.3 mph100%30.24 "Hg10 mi
9:00 PM45 °FClear.3 mph93%30.24 "Hg10 mi
8:30 PM45 °FClear.5 mph93%30.24 "Hg10 mi
8:00 PM46 °FClear.6 mph93%30.24 "Hg10 mi
7:30 PM46 °FClear.6 mph93%30.21 "Hg10 mi
7:00 PM50 °FClear.6 mph82%30.21 "Hg10 mi
6:30 PM52 °FClear.7 mph77%30.18 "Hg10 mi
6:00 PM54 °FPassing clouds.7 mph72%30.18 "HgN/A
5:30 PM57 °FPassing clouds.8 mph59%30.18 "HgN/A
5:00 PM59 °FPassing clouds.9 mph55%30.15 "HgN/A
4:30 PM61 °FPassing clouds.13 mph52%30.15 "HgN/A
4:00 PM61 °FPassing clouds.15 mph48%30.15 "HgN/A
Weather by CustomWeather, © 2016

See weather overviewHow to use our weather pages